CAPE
0 0 0 29 30 10 18 9 49 0 11 15 39 0 0 0 0 0 0 0 0 0 0 0 0 0 0 0 0 0 0 0 5 11 13 16 22 26 42 60 30 19 7 5
0 0 0 11 2 1 3 0 0 3 6 0 0 0 0 0 0 0 0 0 0 0 0 0 0 0 1 3 5 5 6 8 9 10 12 16 15 15 10 13 33 57 82 55
3 1 7 0 0 0 0 0 1 22 39 0 0 0 0 0 0 0 0 0 0 0 0 0 0 0 0 0 0 0 0 0 0 0 1 3 6 8 14 18 36 43 23 34
15 17 12 0 0 0 0 0 2 11 30 0 0 0 0 0 0 0 0 0 0 0 0 0 0 0 0 0 0 0 0 0 0 0 0 0 0 1 8 18 29 55 47 62
61 22 12 0 0 0 1 0 0 0 0 0 0 0 0 0 0 0 0 0 0 0 0 0 0 0 0 0 0 0 0 0 0 0 0 0 2 7 13 19 25 34 28 31
50 34 8 0 0 0 0 1 0 0 0 0 0 0 0 0 1 0 0 0 0 0 0 0 0 0 0 0 0 0 0 0 0 2 2 2 3 6 10 19 26 57 37 33
28 66 32 0 0 0 23 21 0 0 0 0 0 0 0 1 0 0 0 0 0 0 0 0 0 0 0 0 0 0 0 0 0 0 0 0 2 4 7 11 19 60 55 57
20 101 17 0 0 7 5 0 0 0 0 0 0 0 1 1 0 0 0 0 0 0 0 0 0 0 0 0 0 0 0 0 0 0 0 0 6 10 11 19 34 71 80 72
5 4 0 0 0 0 0 0 0 0 0 0 2 4 1 0 0 0 0 0 0 0 0 0 0 0 0 0 0 0 0 0 0 0 0 3 10 14 45 24 61 61 92 99
8 0 3 0 0 0 0 0 0 0 0 0 4 2 0 0 0 0 0 0 0 0 0 0 0 0 0 0 0 0 0 0 0 0 1 9 11 19 24 42 47 44 71 99
4 0 22 0 0 0 0 0 0 0 0 2 0 0 0 0 0 0 0 0 0 0 0 0 0 0 0 0 0 0 0 0 1 1 4 25 10 19 21 22 36 70 68 101
10 0 2 1 0 0 0 1 0 0 0 0 0 0 0 0 0 0 0 0 0 0 0 0 0 0 0 0 0 0 2 1 5 9 11 13 28 48 3 12 8 8 12 43
0 0 0 0 0 0 0 0 0 0 0 0 0 0 0 0 0 0 0 0 0 0 0 0 0 0 0 0 1 4 9 9 11 14 19 22 37 64 75 48 7 7 9 10
0 0 1 2 0 0 0 0 0 0 0 0 0 0 0 0 0 0 0 0 0 0 0 0 0 0 0 0 2 5 10 5 21 31 47 60 33 56 85 93 93 69 29 25
0 0 0 0 0 0 0 0 0 0 0 0 0 0 0 0 0 0 0 0 0 0 0 0 0 0 0 0 1 5 11 18 23 28 40 42 47 44 43 45 58 65 51 37
0 0 0 0 0 0 0 0 0 0 0 0 0 0 0 0 0 0 0 0 0 0 0 0 0 0 0 0 2 6 12 10 23 20 44 22 25 28 28 37 58 71 70 69
0 0 1 0 0 0 0 0 0 0 0 0 0 0 0 0 0 0 0 0 0 0 0 0 0 0 4 5 6 12 17 18 10 20 17 19 22 23 22 28 42 37 39 52
0 0 0 0 0 0 0 0 0 0 0 0 0 0 0 0 0 0 0 0 0 0 0 1 1 3 2 5 6 6 10 14 15 18 15 16 19 17 26 25 24 32 40 36
0 0 0 0 0 0 0 0 0 0 0 0 0 0 0 0 0 0 0 0 0 0 0 0 0 0 0 0 1 2 11 14 15 14 15 10 17 19 24 25 24 21 30 36
0 0 0 0 0 0 0 0 0 0 0 0 0 0 0 0 0 0 0 0 0 2 2 0 0 0 0 0 0 0 11 14 15 15 15 16 21 21 23 13 19 22 27 46
0 0 0 0 0 0 0 0 0 0 0 0 0 0 0 0 0 0 0 0 0 0 0 0 0 0 0 0 0 3 9 14 15 16 17 21 21 19 22 21 22 24 24 24
0 0 0 0 0 0 0 0 0 0 0 0 0 0 0 0 0 0 0 0 0 0 0 0 0 0 0 0 0 6 3 4 14 16 18 19 20 19 21 19 21 21 20 21
0 0 0 0 0 0 0 0 0 0 0 0 0 0 0 0 0 0 0 0 0 0 0 0 0 0 0 1 6 6 4 6 8 13 17 18 19 20 20 19 19 19 20 20
0 0 0 0 0 0 0 0 0 0 0 0 0 0 0 0 2 0 0 0 0 0 0 0 0 0 0 5 6 4 4 8 10 10 10 6 23 15 15 17 16 18 16 15
0 0 0 0 0 0 0 0 0 0 0 0 0 0 0 0 1 0 1 2 0 0 0 0 0 0 1 5 4 3 4 6 6 7 7 10 17 24 17 15 12 13 12 14
0 0 0 0 0 0 0 0 0 0 0 0 0 2 3 3 1 0 2 0 0 0 0 1 1 1 2 2 2 2 2 2 2 3 2 5 11 14 12 15 10 10 11 12
0 0 0 0 0 0 0 0 0 0 0 0 0 4 5 9 5 0 0 7 8 5 3 3 2 0 0 0 2 2 1 1 0 0 2 5 2 13 15 12 14 15 10 11
CIN
0 0 0 0 0 0 0 0 0 0 0 -1 -1 -4 0 0 0 0 0 0 0 0 0 0 0 0 0 0 0 0 0 0 0 0 0 0 0 -2 -2 0 -6 -18 0 0
0 0 0 0 0 0 0 0 0 0 0 0 0 0 0 0 0 0 0 0 0 0 0 0 0 0 0 0 0 0 0 0 0 0 0 0 0 0 0 0 -9 0 0 -1
0 0 0 0 0 0 0 0 0 0 -3 0 0 0 0 0 0 0 0 0 0 0 0 0 0 0 0 0 0 0 0 0 0 0 0 0 0 0 0 0 0 0 0 -36
0 0 0 0 0 0 0 0 -4 -1 -1 0 0 0 0 0 0 0 0 0 0 0 0 0 0 0 0 0 0 0 0 0 0 0 0 0 0 0 0 0 0 0 0 0
0 0 0 0 0 0 -2 0 0 0 0 0 0 0 0 0 0 0 0 0 0 0 0 0 0 0 0 0 0 0 0 0 0 0 0 0 0 0 0 0 0 0 -1 0
0 0 0 0 0 0 0 0 0 0 0 0 0 0 0 0 0 0 0 0 0 0 0 0 0 0 0 0 0 0 0 0 0 0 0 0 0 0 0 0 0 0 0 0
0 0 0 0 0 0 0 -4 0 0 0 0 0 0 0 0 0 0 0 0 0 0 0 0 0 0 0 0 0 0 0 0 0 0 0 0 0 0 0 0 0 0 0 0
0 0 0 0 0 -1 -7 0 0 0 0 0 0 0 0 0 0 0 0 0 0 0 0 0 0 0 0 0 0 0 0 0 0 0 0 0 0 0 0 0 0 0 0 0
0 0 0 0 0 0 0 0 0 0 0 0 0 0 0 0 0 0 0 0 0 0 0 0 0 0 0 0 0 0 0 0 0 0 0 0 0 0 0 0 0 0 0 0
-1 0 -4 0 0 0 0 0 0 0 0 0 0 0 0 0 0 0 0 0 0 0 0 0 0 0 0 0 0 0 0 0 0 0 0 0 0 0 0 0 0 0 0 0
-1 0 -11 -3 0 0 0 0 0 0 0 0 0 0 0 0 0 0 0 0 0 0 0 0 0 0 0 0 0 0 0 0 0 0 0 0 0 0 0 0 0 0 0 0
0 0 0 0 0 0 0 0 0 0 0 0 0 0 0 0 0 0 0 0 0 0 0 0 0 0 0 0 0 0 0 0 0 0 0 0 0 0 -1 0 0 0 0 0
0 0 0 0 0 0 0 0 0 0 0 0 0 0 0 0 0 0 0 0 0 0 0 0 0 0 0 0 0 0 0 0 0 0 0 0 0 0 0 0 0 0 0 0
0 0 0 0 0 0 0 0 0 0 0 0 0 0 0 0 0 0 0 0 0 0 0 0 0 0 0 0 0 0 0 0 0 0 0 0 0 0 0 0 0 0 0 0
0 0 0 0 0 0 0 0 0 0 0 0 0 0 0 0 0 0 0 0 0 0 0 0 0 0 0 0 0 0 0 0 0 0 0 0 0 0 0 0 0 0 0 0
0 0 0 0 0 0 0 0 0 0 0 0 0 0 0 0 0 0 0 0 0 0 0 0 0 0 0 0 0 0 0 0 0 0 0 0 0 0 0 0 0 0 0 0
0 0 0 0 0 0 0 0 0 0 0 0 0 0 0 0 0 0 0 0 0 0 0 0 0 0 0 0 0 0 0 0 0 0 0 0 0 0 0 0 0 0 0 0
0 0 0 0 0 0 0 0 0 0 0 0 0 0 0 0 0 0 0 0 0 0 0 0 0 0 0 0 0 0 0 0 0 0 0 0 0 0 0 0 0 0 0 0
0 0 0 0 0 0 0 0 0 0 0 0 0 0 0 0 0 0 0 0 0 0 0 0 0 0 0 0 0 0 0 0 0 0 0 0 0 0 0 0 0 0 0 0
0 0 0 0 0 0 0 0 0 0 0 0 0 0 0 0 0 0 0 0 0 0 0 0 0 0 0 0 0 0 0 0 0 0 0 0 0 0 0 0 0 0 0 0
0 0 0 0 0 0 0 0 0 0 0 0 0 0 0 0 0 0 0 0 0 0 0 0 0 0 0 0 0 0 0 0 0 0 0 0 0 0 0 0 0 0 0 0
0 0 0 0 0 0 0 0 0 0 0 0 0 0 0 0 0 0 0 0 0 0 0 0 0 0 0 0 0 0 0 0 0 0 0 0 0 0 0 0 0 0 0 0
0 0 0 0 0 0 0 0 0 0 0 0 0 0 0 0 0 0 0 0 0 0 0 0 0 0 0 0 0 0 0 0 0 0 0 0 0 0 0 0 0 0 0 0
0 0 0 0 0 0 0 0 0 0 0 0 0 0 0 0 0 0 0 0 0 0 0 0 0 0 0 0 0 0 0 0 0 0 0 0 0 0 0 0 0 0 0 0
0 0 0 0 0 0 0 0 0 0 0 0 0 0 0 0 0 0 0 0 0 0 0 0 0 0 0 0 0 0 0 0 0 0 0 0 0 0 0 0 0 0 0 0
0 0 0 0 0 0 0 0 0 0 0 0 0 0 0 0 0 0 0 0 0 0 0 0 0 0 0 0 0 0 0 0 0 0 0 0 0 0 0 0 0 0 0 0
0 0 0 0 0 0 0 0 0 0 0 0 0 0 0 0 0 0 0 0 0 0 0 0 0 0 0 0 0 0 0 0 0 0 0 0 0 0 0 0 0 0 0 0
Wind_Speed
9 10 10 10 12 14 18 19 17 22 22 21 17 6 4 5 7 9 11 12 12 12 12 12 13 12 12 11 12 12 11 11 12 13 14 15 16 16 17 16 16 16 16 16
5 11 12 13 17 19 20 21 21 20 20 10 8 8 7 7 7 9 10 10 10 11 11 11 11 11 10 11 11 12 11 11 12 13 14 14 15 15 17 17 18 18 19 19
6 7 7 12 18 17 13 11 13 14 9 6 3 5 6 6 7 8 8 9 10 10 10 10 11 11 11 12 11 12 12 13 13 14 15 15 16 17 17 17 17 16 16 19
5 8 5 1 1 5 10 15 15 16 14 2 4 8 8 7 7 6 6 8 8 8 9 10 11 11 11 11 11 13 14 14 15 15 16 17 17 18 18 17 18 16 17 21
4 7 13 18 6 4 3 12 8 8 3 6 11 10 9 6 7 7 6 6 6 7 7 8 10 11 10 10 11 11 12 13 15 15 16 17 17 17 17 17 18 19 17 18
3 4 6 2 4 1 2 10 2 2 2 5 9 6 4 5 5 5 5 6 7 7 8 8 10 10 10 11 11 12 13 14 14 14 15 17 16 17 16 17 17 15 20 18
7 7 7 7 3 3 4 3 5 5 6 5 5 3 9 7 5 4 4 5 7 7 7 8 9 9 10 10 12 13 14 14 15 16 17 17 17 17 18 18 18 18 19 18
7 5 12 7 7 5 3 2 5 7 6 4 4 7 8 6 4 3 3 5 6 7 7 8 9 9 11 11 12 14 16 17 17 17 15 14 18 17 18 18 18 17 18 17
9 6 5 5 5 1 4 5 7 9 6 6 7 8 7 5 3 3 4 6 6 7 8 8 9 10 12 12 15 16 17 17 17 17 17 16 17 18 15 16 14 15 14 16
5 8 6 6 7 6 5 5 9 7 6 6 7 8 6 4 3 2 4 6 7 7 8 8 9 10 11 13 15 17 17 18 16 17 18 16 14 13 13 14 14 14 15 15
4 12 15 16 12 8 6 8 8 6 6 7 8 7 5 4 4 2 3 5 6 7 8 9 10 11 12 14 15 16 17 16 16 14 17 16 15 14 14 14 15 15 15 14
6 12 9 13 6 8 11 12 11 11 10 7 6 7 5 6 4 2 4 5 6 7 8 9 10 12 13 14 15 16 16 14 14 14 14 14 15 14 18 20 23 24 27 18
16 8 4 1 5 9 9 11 11 10 10 10 7 7 5 6 5 3 3 5 6 8 8 9 10 12 13 14 14 16 15 16 14 14 14 15 15 15 16 16 23 22 23 25
12 9 4 9 6 10 11 11 11 10 9 8 8 7 6 5 5 1 4 6 7 8 8 9 10 12 13 14 14 15 16 18 13 14 13 13 14 15 13 14 15 14 18 21
16 16 13 10 12 13 13 13 13 11 10 9 7 7 6 5 2 2 4 6 6 7 7 10 11 12 13 14 15 16 14 13 14 14 13 15 14 14 14 15 14 13 13 15
12 13 11 15 16 17 16 16 13 12 11 9 8 7 6 4 1 2 3 5 6 7 8 9 10 13 14 15 15 14 14 19 16 14 13 14 13 14 13 14 14 13 12 13
15 15 14 14 17 18 18 14 12 12 11 10 9 8 6 4 2 2 3 5 6 6 8 9 11 12 13 13 14 12 12 13 18 13 13 13 13 13 14 14 13 13 12 13
21 12 17 17 18 18 17 15 12 13 11 11 9 7 5 2 2 2 4 5 6 7 8 8 10 11 11 11 13 13 12 12 13 14 13 13 13 13 12 13 14 13 12 13
17 13 15 14 17 17 16 15 14 13 11 11 9 7 6 4 1 2 4 4 5 7 7 10 12 12 11 13 13 12 12 14 14 13 13 15 13 13 12 12 13 14 13 12
16 13 15 16 18 18 17 15 15 13 12 11 8 7 6 4 3 0 3 5 6 6 9 10 11 10 11 13 14 11 12 13 14 13 12 13 13 13 13 14 14 13 12 13
16 17 18 18 17 16 13 14 11 11 10 9 9 7 5 5 3 0 3 4 3 5 9 11 8 8 10 12 12 10 12 13 13 13 13 13 14 13 13 13 12 12 11 11
16 16 15 15 15 14 13 14 12 10 10 8 6 6 5 5 4 3 4 5 5 5 7 7 6 10 10 15 10 10 11 13 12 12 12 13 13 13 13 13 12 11 11 11
15 16 17 15 15 17 16 13 10 11 10 9 8 7 5 2 1 2 3 3 5 6 7 6 8 12 13 9 9 10 11 12 12 13 13 13 13 13 13 13 12 12 11 11
16 16 15 15 16 17 16 13 12 10 8 8 7 6 5 4 3 2 2 3 4 6 7 6 8 11 12 8 9 10 10 11 12 12 14 16 13 13 13 13 12 12 11 13
16 16 16 16 16 12 14 14 11 10 10 8 8 7 6 3 2 1 3 4 5 6 7 6 8 10 8 8 9 9 10 10 11 12 13 14 14 14 14 13 13 13 12 12
17 12 12 14 11 11 10 11 8 8 8 7 6 5 4 3 3 3 3 3 5 5 6 6 6 7 8 8 9 10 10 11 11 12 13 13 14 14 13 14 13 13 12 12
12 13 12 10 9 10 9 9 8 8 7 6 5 5 5 4 3 3 2 4 4 5 5 5 6 7 7 8 9 9 9 10 12 12 12 13 13 13 14 14 13 13 12 11
Wind_Direction
281 291 289 278 277 253 247 258 267 283 288 299 322 21 90 76 77 73 59 52 45 39 39 34 29 20 15 8 358 349 338 329 322 314 307 307 303 297 292 285 278 277 273 268
271 276 272 270 260 256 263 273 272 279 284 40 93 112 105 87 76 66 53 44 40 40 38 34 28 18 15 10 9 2 3 355 347 341 333 326 320 314 306 301 298 294 284 272
273 315 318 274 248 245 244 261 282 290 330 0 130 124 107 99 72 61 49 43 39 34 33 26 20 12 10 2 1 360 354 348 343 337 330 326 321 317 312 309 303 294 290 294
278 295 245 4 230 270 284 292 282 291 305 40 101 108 92 64 80 72 55 41 35 27 21 20 9 4 355 354 354 352 349 343 341 337 332 328 325 321 317 312 307 306 298 292
254 256 291 284 264 259 258 301 10 334 48 116 135 142 97 73 66 69 61 44 32 22 10 6 1 352 348 353 355 353 351 343 339 337 332 329 325 325 322 319 316 309 303 299
168 246 260 58 99 109 295 266 112 137 199 166 178 238 106 125 89 79 53 35 12 5 357 0 360 351 354 358 354 350 342 333 326 327 323 322 323 321 315 313 310 312 313 303
231 246 270 296 136 176 232 15 144 160 172 174 204 32 104 128 113 72 42 25 355 357 3 4 358 355 353 350 349 338 334 332 332 331 326 322 322 320 319 316 314 313 309 311
216 226 255 131 148 216 57 130 166 156 130 121 133 137 140 132 123 75 17 5 8 5 8 7 355 350 342 349 342 341 338 333 330 327 322 320 321 318 317 314 314 310 310 308
211 217 97 194 267 289 287 285 183 161 157 170 181 162 155 150 112 55 11 13 10 5 355 355 351 343 340 350 346 341 333 328 326 326 320 324 319 320 317 316 316 313 320 320
240 240 268 268 244 249 231 181 162 154 164 203 163 158 156 138 106 27 28 12 2 347 350 346 349 350 355 349 343 336 329 326 326 325 326 315 320 315 316 316 318 315 318 322
260 278 282 271 259 260 175 158 139 139 173 164 153 155 155 141 123 84 30 12 351 346 337 342 347 355 351 345 338 330 326 324 324 325 319 319 317 319 315 314 317 316 311 311
241 262 286 285 325 154 168 171 160 159 146 141 149 153 154 137 129 83 26 356 346 335 336 346 349 350 345 342 338 329 321 325 326 323 321 321 319 313 315 311 315 313 312 313
255 278 333 356 149 169 172 166 168 160 149 144 145 151 147 139 104 79 342 343 336 336 344 345 350 343 339 338 329 322 323 321 322 316 322 320 318 319 316 317 316 317 320 320
244 134 150 184 192 175 162 165 153 140 142 145 147 141 141 130 124 36 346 336 333 342 350 349 338 337 335 329 325 321 317 316 312 320 317 313 318 312 314 314 317 320 325 322
233 217 266 173 153 161 167 158 160 156 153 150 156 148 150 131 114 360 327 333 338 346 353 342 342 330 329 330 323 321 319 318 323 318 314 314 314 317 317 317 316 315 317 322
225 209 183 174 170 172 172 177 171 168 163 159 159 156 142 125 78 313 335 358 351 351 340 343 325 326 334 329 325 321 321 321 322 318 312 323 320 318 321 319 316 321 323 326
184 186 185 181 180 178 184 179 175 168 155 166 161 156 147 148 223 267 336 1 360 333 333 327 330 329 324 318 324 320 321 321 325 316 322 320 320 321 319 319 315 318 316 310
218 224 198 191 179 175 175 174 164 160 161 161 154 142 122 165 275 305 358 343 346 341 321 339 319 319 312 320 321 321 319 320 324 323 321 322 324 315 316 320 315 314 316 315
204 204 183 174 169 167 166 162 161 155 152 150 145 151 157 169 227 25 345 348 328 307 4 329 329 313 319 328 325 321 314 326 323 323 325 324 320 318 321 316 318 314 312 313
187 178 157 151 155 158 158 153 152 153 155 146 132 147 162 171 166 84 336 318 305 321 317 321 316 320 333 327 340 304 327 326 324 326 328 323 321 323 318 317 317 314 312 302
166 154 149 150 152 156 150 139 147 141 127 145 157 164 168 147 156 264 283 303 50 349 325 309 321 333 332 333 314 326 327 326 329 329 327 327 323 322 321 319 316 313 311 312
156 149 143 141 140 138 127 144 137 129 143 140 131 140 152 173 182 233 228 284 325 359 323 313 329 349 321 322 313 326 327 329 329 328 328 327 327 324 322 319 315 312 309 306
152 147 143 143 151 139 142 138 138 148 149 157 163 167 190 153 131 287 301 110 313 359 307 317 344 322 324 302 324 324 328 328 328 333 330 329 326 326 322 318 316 309 305 303
145 145 142 148 139 140 148 146 156 151 155 162 159 169 189 185 189 225 291 299 291 326 304 312 320 319 317 313 323 327 326 328 328 332 328 332 328 325 325 321 315 312 306 301
145 145 145 147 151 154 146 155 152 160 171 173 165 172 196 189 228 18 312 309 299 295 313 314 314 316 307 318 326 324 326 325 330 326 332 329 327 327 327 327 322 316 309 300
151 147 149 162 150 147 152 160 168 173 173 166 172 173 173 177 187 233 257 283 293 309 300 314 315 316 312 320 321 323 325 326 331 330 328 329 330 329 329 325 321 317 311 304
139 144 153 148 147 155 157 169 172 168 172 165 176 169 183 192 196 252 262 282 298 299 296 303 306 314 313 319 316 325 325 328 331 329 327 329 332 330 328 322 321 319 313 307